Other Public Products
Issued by NWS Grand Forks, ND

Home | Current Version | Previous Version | Text Only | Print | Product List | Glossary On
Versions: 1 2 3 4 5 6 7 8 9 10 11 12 13 14 15 16 17 18 19 20 21 22 23 24 25 26 27 28 29 30 31 32 33 34 35 36 37 38 39 40 41 42 43 44 45 46 47 48 49 50
000
FPUS83 KFGF 271131
OPUFGF
PRAIRIE TO PINES WEATHER ROUNDUP
NATIONAL WEATHER SERVICE EASTERN NORTH DAKOTA/GRAND FORKS ND
600 AM CDT MON APR 27 2015

 **SATELLITE DATA USED TO AUGMENT SKY COVER AT AUTOMATED STATIONS**
 *****  WEATHER ACROSS EASTERN NORTH DAKOTA  *****

CITY           SKY/WX    TMP DP  RH WIND       PRES   REMARKS
GRAND FORKS    MOCLDY    32  26  78 SW5       30.18R
GRAND FORKS AF MOCLDY    32  32 100 W2        30.18S
GRAND CITY NWS   N/A     36 N/A N/A S1          N/A
BUXTON           N/A     44  26  50 CALM        N/A
DEVILS LAKE    CLOUDY    43  39  87 NW7       30.19S
FARGO          MOCLDY    37  24  59 CALM      30.19S
WAHPETON ARPT  MOSUNNY   34  23  64 E3        30.20R
$$

 *****  WEATHER ACROSS CENTRAL AND WESTERN NORTH DAKOTA  *****

CITY           SKY/WX    TMP DP  RH WIND       PRES   REMARKS
JAMESTOWN      MOCLDY    35  28  75 CALM      30.18S
BISMARCK       CLOUDY    44  43  96 NW7       30.20R FOG
MINOT          LGT RAIN  41  38  89 NW8       30.23R
MINOT AFB      DRIZZLE   40  40 100 NW8       30.23R
GARRISON         N/A     42  40  92 N9        30.21R
WILLISTON      LGT RAIN  41  39  93 CALM      30.27R
DICKINSON      LGT RAIN  42  39  89 NW9       30.20R
HETTINGER      CLOUDY    42  40  92 NW13      30.22R
$$

 *****  OTHER OBSERVATIONS NORTHEAST NORTH DAKOTA  *****

CITY           SKY/WX    TMP DP  RH WIND       PRES   REMARKS
WALHALLA       PTSUNNY   48  48 100 NW6       30.20R
LANGDON        CLOUDY    43  39  87 NW8       30.20S
CAVALIER       CLOUDY    50  45  81 NW8       30.18R HAZE
GRAFTON        FAIR      36  34  93 CALM      30.19S
CANDO          CLOUDY    43  39  87 N9        30.22R
FORT TOTTEN    NOT AVBL
ROLLA          CLOUDY    39  39 100 N9        30.22S
RUGBY          NOT AVBL
 ***** THE ABOVE OBSERVATIONS ARE NON NWS ARE NOT QUALITY
        CONTROLLED AND MAY MIS-REPORT RAIN FOR SNOW...
$$

 *****  OTHER OBSERVATIONS SOUTHEAST NORTH DAKOTA *****

CITY           SKY/WX    TMP DP  RH WIND       PRES   REMARKS
COOPERSTOWN    NOT AVBL
VALLEY CITY    FAIR      39  27  60 SW6       30.19S
OAKES            N/A     34  32  93 W3        30.21R
GWINNER        SUNNY     37  27  65 W13       30.21R
SHEYENNE NWR     N/A     29  23  79 W2        29.95S
BUFFALO        NOT AVBL
WYNDMERE       NOT AVBL
 ***** THE ABOVE OBSERVATIONS ARE NON NWS ARE NOT QUALITY
       CONTROLLED AND MAY MIS-REPORT RAIN FOR SNOW...
$$

  *****  WEATHER ACROSS NORTHERN MINNESOTA  *****

CITY           SKY/WX    TMP DP  RH WIND       PRES   REMARKS
FLAG ISLAND    CLEAR     41  28  60 SE3       30.20S
WARROAD        PTCLDY    34  28  80 CALM      30.21S
ROSEAU         MOCLDY    34  27  75 CALM      30.19F
HALLOCK        MOCLDY    41  19  42 S5        30.18S
THF RVR FALLS  PTCLDY    37  21  52 SE5       30.20S
HALSTAD          N/A     33  21  63 S6          N/A
FOSSTON        PTCLDY    34  25  69 CALM      30.20F
BAUDETTE       CLEAR     32  27  81 E3        30.21R
WASKISH        CLEAR     28  27  93 CALM      30.21S
CROOKSTON      MOCLDY    36  25  64 S8        30.20S
$$
  *****  WEATHER ACROSS CENTRAL AND WEST MINNESOTA  *****

CITY           SKY/WX    TMP DP  RH WIND       PRES   REMARKS
BEMIDJI        CLEAR     28  21  76 CALM      30.20F
PARK RAPIDS    CLEAR     33  23  66 CALM      30.20S
WADENA         CLEAR     28  23  80 CALM      30.20S
DETROIT LAKES  CLEAR     37  34  87 CALM      30.21S
MOORHEAD       PTCLDY    37  23  56 CALM      30.21S
FERGUS FALLS   CLEAR     37  27  65 E3        30.22S
ELBOW LAKE     FAIR      42  28  57 E6        30.20R
MORRIS MN      CLEAR     34  25  69 E5        30.20R
STAPLES        CLEAR     28  25  86 CALM      30.21S
WHEATON        CLEAR     28  21  74 CALM      30.23R
$$
  *****  WEATHER ELSEWHERE ACROSS MINNESOTA  *****

CITY           SKY/WX    TMP DP  RH WIND       PRES   REMARKS
DULUTH         CLEAR     30  24  78 NW3       30.21R
INTRNTL FALLS  CLEAR     24  21  88 CALM      30.22R
ELY            CLEAR     25  21  86 CALM      30.22R
CLOQUET        CLEAR     25  19  80 NW5       30.22S WCI  19
BRAINERD       CLEAR     28  21  75 CALM      30.21F
HIBBING        CLEAR     22  18  85 CALM      30.22R
ALEXANDRIA     CLEAR     34  30  85 CALM      30.21S
SAINT CLOUD    CLEAR     28  24  85 N3        30.21R
MINNEAPOLIS    PTCLDY    40  30  67 N3        30.20S
$$

  *****  WEATHER ACROSS SOUTH DAKOTA  *****

CITY           SKY/WX    TMP DP  RH WIND       PRES   REMARKS
SIOUX FALLS    PTCLDY    35  26  69 N3        30.18R
BROOKINGS      CLEAR     34  27  75 CALM      30.21R
WATERTOWN      CLEAR     30  23  75 CALM      30.19R
HURON          CLEAR     29  24  82 NW6       30.19R WCI  23
SISSETON         N/A     32  25  75 SW5       30.19R
ABERDEEN       PTCLDY    32  26  78 N6        30.20R
MITCHELL       CLEAR     37  32  82 W3        30.19R
PIERRE         PTCLDY    33  30  88 NW5       30.17R
MOBRIDGE       PTCLDY    38  33  82 N3        30.16R
RAPID CITY     CLOUDY    42  39  89 N21       30.19R
$$

  *****  SOME WEATHER IN NEARBY STATES *****

CITY           SKY/WX    TMP DP  RH WIND       PRES   REMARKS
GLASGOW MT     CLOUDY    39  36  89 W3        30.27S
GREAT FALLS MT CLEAR     32  28  85 SW12      30.24R WCI  23
CHEYENNE WY    CLOUDY    33  32  96 CALM      30.15R
SCOTTSBLUFF NE CLOUDY    44  32  62 NE5       30.18R
OMAHA NE       PTCLDY    38  35  89 N8        30.17R
DES MOINES IA  PTCLDY    40  32  73 NW7       30.15R
DAVENPORT IA   CLEAR     35  29  78 E7        30.12R
CHICAGO IL     CLEAR     39  30  70 N7        30.04S
EAU CLAIRE WI  CLEAR     33  25  72 N3        30.19R
LA CROSSE WI   CLEAR     39  31  72 NW5       30.15R
$$

  *****  SOME NATIONAL WEATHER *****

CITY           SKY/WX    TMP DP  RH WIND       PRES   REMARKS
LA GUARDIA NY  CLOUDY    49  32  52 NW8       29.67R
RALEIGH NC     PTCLDY    40  40 100 CALM      29.79R
ATLANTA GA     MOCLDY    52  46  82 NW5       29.85R
NEW ORLEANS LA CLOUDY    76  72  87 E6        29.70F
OKLAHOMA CITY  CLOUDY    54  50  86 NE20      29.80F
ALBUQUERQUE NM MOCLDY    44  39  82 W10       29.93R
SALT LAKE CITY CLOUDY    44  35  70 N9        30.16S
LOS ANGELES CA PTCLDY    57  52  83 NE3       29.92S
BOISE ID       CLEAR     37  26  64 S3        30.25R
SEATTLE WA     CLOUDY    51  48  89 SE9       30.26S FOG
$$

*** WEATHER ACROSS MANITOBA...SASKATCHEWAN AND ONTARIO ***
                ***ONTARIO***

CITY           SKY/WX    TMP DP  RH WIND       PRES   REMARKS
GERALDTON      CLOUDY    28  27  93 N3        30.19R
THUNDER BAY    PTCLDY    28  27  93 SW7       30.21R WCI  21
SIOUX LOOKOUT  PTCLDY    25  25 100 CALM      30.22R
TORONTO        CLOUDY    39  36  87 N15       29.84R
BIG TROUT LK   CLEAR     23  23 100 CALM      30.27F
PICKLE LAKE    PTCLDY    27  21  80 CALM      30.23
DRYDEN         CLEAR     32  30  93 VRB2      30.22R
KENORA         MOCLDY    41  25  52 S7        30.21R
$$
                *** MANITOBA***

CITY           SKY/WX    TMP DP  RH WIND       PRES   REMARKS
BRANDON        CLOUDY    39  36  87 W8        30.23R
DAUPHIN        CLOUDY    39  34  81 W10       30.21S
ISLAND LAKE    LGT RAIN  39  30  70 SE10      30.13R
PILOT MOUND      N/A     41  37  87 NW9         N/A
THE PAS        CLOUDY    34  32  93 W15G22    30.14R WCI  24
THOMPSON       CLOUDY    41  30  65 VRB2      30.03S
WINNIPEG       CLOUDY    48  45  87 NW7       30.19R
CHURCHILL      CLOUDY    25  25 100 E12       30.34F WCI  14
GILLAM         CLOUDY    37  30  75 E3        30.15S
$$
                ***SASKATCHEWAN***

CITY           SKY/WX    TMP DP  RH WIND       PRES   REMARKS
ESTEVAN        LGT RAIN  37  37 100 W5        30.26R
KINDERSLEY     CLEAR     28  27  93 SE7       30.18F WCI  21
LLOYDMINSTER   CLEAR     28  21  74 SE6       30.15R WCI  22
PRINCE ALBERT  FOG       25  25 100 CALM      30.24R VSB 1/4
REGINA         CLOUDY    32  30  93 SW5       30.26R
YORKTON        CLOUDY    36  32  87 NW10      30.24R



USA.gov is the U.S. government's official web portal to all federal, state and local government web resources and services.